Montauk, NY

7:24 PM EDT on August 20, 2017 (GMT -0400)
Montauk

Weather History for KMTP - December, 2011

Change the Weather History Date:

Wednesday, December 28, 2011

  Actual Average (KHTO) Record (KHTO)
Temperature  
Mean Temperature 43 °F -  
Max Temperature 53 °F 40 °F 58 °F (1936)
Min Temperature 32 °F 25 °F 1 °F (1950)
Degree Days  
Heating Degree Days 22    
Moisture  
Dew Point 32 °F    
Average Humidity 66    
Maximum Humidity 89    
Minimum Humidity 53    
Precipitation  
Precipitation 0.00 in - - ()
Sea Level Pressure  
Sea Level Pressure 29.50 in    
Wind  
Wind Speed 15 mph (West)    
Max Wind Speed 24 mph    
Max Gust Speed 37 mph    
Averages and records for this station are not official NWS values.
T = Trace of Precipitation, MM = Missing Value Source: NWS Daily Summary

Daily Weather History Graph

Daily Weather History Graph

Search for Another Location

Airport or City:

Trip Planner

Search our weather history database for the weather conditions in past years. The results will help you decide how hot, cold, wet, or windy it might be!

Date:

Astronomy

Dec. 28, 2011 Rise Set
Actual Time 7:12 AM EST 4:26 PM EST
Civil Twilight 6:40 AM EST 4:57 PM EST
Nautical Twilight 6:06 AM EST 5:32 PM EST
Astronomical Twilight 5:32 AM EST 6:05 PM EST
Moon 9:34 AM EST (12/28) 9:02 PM EST (12/28)
Length of Visible Light 10h 16m
Length of Day
9h 14m
Waxing Crescent, 18% of the Moon is Illuminated
Dec 28
Waxing Crescent
Jan 1
First Quarter
Jan 9
Full
Jan 16
Last Quarter
Jan 23
New

Hourly Weather History & Observations

Time (EST) Temp. Windchill Dew Point Humidity Pressure Visibility Wind Dir Wind Speed Gust Speed Precip Events Conditions
12:54 AM 53.1 °F - 50.0 °F 89% 29.37 in - SW 11.5 mph 20.7 mph N/A   Unknown
1:54 AM 51.1 °F - 48.0 °F 89% 29.37 in - SW 11.5 mph 20.7 mph N/A   Unknown
2:54 AM 48.9 °F - 43.0 °F 80% 29.36 in - WSW 13.8 mph - N/A   Unknown
3:54 AM 48.0 °F - 41.0 °F 77% 29.37 in - WSW 9.2 mph 18.4 mph N/A   Unknown
4:54 AM 46.9 °F - 39.9 °F 77% 29.37 in - WSW 13.8 mph 21.9 mph N/A   Unknown
5:54 AM 46.9 °F - 37.9 °F 71% 29.38 in - WSW 11.5 mph 19.6 mph N/A   Unknown
6:54 AM 46.0 °F 40.6 °F 37.9 °F 73% 29.40 in - WSW 11.5 mph 24.2 mph N/A   Unknown
7:54 AM 46.0 °F 39.6 °F 37.0 °F 71% 29.40 in - WSW 15.0 mph 23.0 mph N/A   Unknown
8:54 AM 45.0 °F 39.7 °F 37.0 °F 74% 29.42 in - WSW 10.4 mph 24.2 mph N/A   Unknown
9:54 AM 46.9 °F - 36.0 °F 66% 29.43 in - West 15.0 mph 25.3 mph N/A   Unknown
10:54 AM 46.9 °F - 34.0 °F 61% 29.42 in - West 18.4 mph 25.3 mph N/A   Unknown
11:54 AM 46.9 °F - 34.0 °F 61% 29.42 in - West 17.3 mph 26.5 mph N/A   Unknown
12:54 PM 46.9 °F - 33.1 °F 59% 29.42 in - West 19.6 mph 31.1 mph N/A   Unknown
1:54 PM 46.9 °F - 33.1 °F 59% 29.44 in - West 24.2 mph 36.8 mph N/A   Unknown
2:54 PM 44.1 °F 35.4 °F 28.9 °F 55% 29.49 in - West 21.9 mph 34.5 mph N/A   Unknown
3:54 PM 42.1 °F 32.6 °F 26.1 °F 53% 29.53 in - West 23.0 mph 35.7 mph N/A   Unknown
4:54 PM 39.9 °F 29.7 °F 26.1 °F 58% 29.57 in - West 23.0 mph 35.7 mph N/A   Unknown
5:54 PM 39.0 °F 28.8 °F 25.0 °F 57% 29.60 in - West 21.9 mph 35.7 mph N/A   Unknown
6:54 PM 37.9 °F 27.6 °F 23.0 °F 55% 29.63 in - WNW 20.7 mph 35.7 mph N/A   Unknown
7:54 PM 37.0 °F 26.4 °F 24.1 °F 59% 29.65 in - West 20.7 mph 33.4 mph N/A   Unknown
8:54 PM 35.1 °F 24.1 °F 21.9 °F 59% 29.69 in - West 19.6 mph 32.2 mph N/A   Unknown
9:54 PM 34.0 °F 23.4 °F 21.9 °F 61% 29.73 in - West 17.3 mph 28.8 mph N/A   Unknown
10:54 PM 33.1 °F 22.6 °F 19.9 °F 59% 29.74 in - West 16.1 mph 28.8 mph N/A   Unknown
11:54 PM 32.0 °F 21.2 °F 19.0 °F 59% 29.75 in - West 16.1 mph 29.9 mph N/A   Unknown